Date,TemperatureHighF,TemperatureAvgF,TemperatureLowF,DewpointHighF,DewpointAvgF,DewpointLowF,HumidityHigh,HumidityAvg,HumidityLow,PressureMaxIn,PressureMinIn,WindSpeedMaxMPH,WindSpeedAvgMPH,GustSpeedMaxMPH,PrecipitationSumIn
2013-2-1,4.6,-5.5,-21.5,-4.7,-14.8,-27.4,81,64,35,30.19,29.97,8,3,9,0.00
2013-2-2,15.8,5.7,-6.9,3.3,-4.1,-11.0,83,65,40,30.08,29.89,7,3,7,0.00
2013-2-3,18.3,10.2,2.3,3.9,0.4,-2.7,84,65,43,29.96,29.87,10,4,10,0.00
2013-2-4,18.1,10.0,-2.4,9.8,-0.2,-10.1,89,64,37,29.98,29.63,14,4,14,0.00
2013-2-5,30.7,18.8,-0.9,22.0,11.2,-4.5,93,74,43,29.98,29.53,14,4,14,0.00
2013-2-6,23.4,14.6,-2.6,20.6,11.1,-6.1,90,85,80,30.00,29.86,9,3,10,0.00
2013-2-7,28.8,25.1,22.8,23.2,21.5,20.1,98,86,73,30.17,29.92,17,8,17,0.00
2013-2-8,32.7,22.9,4.8,20.1,12.1,1.5,89,65,42,30.29,30.15,11,3,11,0.00
2013-2-9,32.0,29.2,19.2,29.6,26.2,14.6,99,89,77,30.12,29.85,14,5,17,0.00
2013-2-10,33.6,29.7,26.2,33.4,29.0,24.5,99,97,89,29.86,29.21,17,6,17,0.00
2013-2-11,30.2,24.8,15.3,30.0,18.2,10.1,99,76,63,29.93,29.23,17,7,17,0.00
2013-2-12,39.9,24.2,7.3,22.0,16.3,4.9,93,74,43,29.93,29.68,13,3,13,0.17
2013-2-13,44.6,28.5,19.8,32.3,24.5,17.3,99,86,47,29.69,29.49,7,1,7,0.00
2013-2-14,35.2,25.4,8.8,31.0,14.0,-2.8,99,66,28,30.06,29.52,18,4,18,0.07
2013-2-15,21.0,11.4,-1.1,2.1,-1.2,-6.1,81,58,36,30.19,30.05,17,4,17,0.01
2013-2-16,25.7,11.3,-2.6,4.1,-0.7,-34.2,85,61,34,30.14,30.04,8,2,8,0.00
2013-2-17,32.5,22.1,3.0,17.6,11.2,-2.7,78,63,48,30.06,29.61,15,6,15,0.00
2013-2-18,34.7,25.4,15.1,29.2,18.5,8.1,84,75,64,29.64,29.42,21,6,21,0.00
2013-2-19,15.1,5.1,0.3,8.1,-7.7,-10.2,73,55,39,30.21,29.64,19,9,19,0.26
2013-2-20,20.5,7.1,-9.2,1.8,-4.3,-14.6,81,60,38,30.36,30.21,8,3,8,0.26
2013-2-21,24.8,14.8,-5.1,16.6,4.4,-8.8,88,65,40,30.39,30.06,16,6,16,0.00
2013-2-22,31.8,25.0,19.6,25.4,21.2,-30.1,96,86,69,30.06,29.76,12,6,12,0.01
2013-2-23,36.1,27.4,20.7,25.1,21.9,19.7,97,81,55,29.81,29.72,5,2,5,0.02
2013-2-24,48.2,25.0,6.1,22.0,15.3,3.9,93,70,31,30.01,29.81,9,1,9,0.02
2013-2-25,44.4,32.6,10.8,22.3,19.0,8.5,93,61,35,30.02,29.96,6,2,6,0.00
2013-2-26,39.4,39.4,39.4,20.3,20.3,20.3,46,46,46,29.97,29.97,4,4,4,0.00